Language selection

Features

My Weather Profile Weather Topics  | 

Atlantic - Newfoundland: Past 24 Hour Conditions

 

Mary's Harbour

01:30 AM NST 13 December 2019
Disclaimer

This table is a summary of hourly weather conditions for the past 24 hours.
Please note that these observations might not always be representative of weather conditions over their associated marine area.

Date / Time
(NST)
Wind(knots) Conditions Visibility(km) Pressure(kPa) Air tempC) Relative humidity(%) Dew pointC) Wind Chill
13 December 2019
1:30 W 14 gust 21 Clear 16 101.9 -19 59 -25 -30
0:30 W 18 gust 24 Clear 16 101.8 -18 58 -25 -31
12 December 2019
23:30 W 15 gust 27 Cloudy 16 101.7 -17 56 -24 -29
22:30 W 13 gust 22 Mostly Cloudy 16 101.7 -18 56 -24 -28
21:30 W 12 gust 24 Cloudy 16 101.7 -17 53 -25 -27
20:30 WNW 13 gust 21 Cloudy 16 101.6 -17 50 -25 -27
19:30 WNW 11 gust 19 Cloudy 16 101.5 -16 48 -25 -26
18:30 WSW 5 Mostly Cloudy 16 101.5 -16 49 -24 -22
17:30 W 6 Clear 16 101.4 -16 48 -24 -22
16:30 W 8 Mostly Cloudy 13 101.4 -14 44 -24 -22
15:30 W 8 gust 15 Mainly Sunny 16 101.4 -14 43 -24 -22
14:30 W 14 gust 21 Sunny 16 101.3 -13 39 -24 -23
13:30 W 14 gust 20 Sunny 16 101.3 -13 39 -24 -23
12:30 W 14 gust 19 Sunny 16 101.4 -14 40 -25 -24
11:30 W 14 gust 21 Sunny 16 101.4 -15 44 -25 -25
10:30 W 8 gust 16 Mainly Sunny 16 101.5 -16 50 -24 -24
9:30 WSW 5 Sunny 16 101.5 -17 55 -24 -24
8:30 WSW 7 Sunny 16 101.5 -18 60 -24 -26
7:30 W 10 Clear 16 101.5 -18 60 -24 -28
6:30 WSW 9 Clear 16 101.5 -18 62 -23 -27
5:30 WSW 10 gust 18 Clear 16 101.4 -18 59 -24 -27
4:30 WSW 10 gust 17 Clear 16 101.4 -17 59 -23 -26
3:30 WSW 11 Clear 16 101.3 -16 60 -23 -26
2:30 W 14 Clear 16 101.3 -16 57 -23 -27
1:30 WSW 10 gust 15 Clear 16 101.3 -15 57 -22 -24

Zoom-in to make a selection

Map of Atlantic - Newfoundland marine weather areas Banquereau - 44139 Blanc-Sablon Airport Cap Whittle Chevery Natashquan Airport Heath Point Îles de la Madeleine Airport Miscou Island Eskasoni (First Nations) Grand Étang Ingonish Beach North Mountain St.Paul Island J.A. Douglas McCurdy Sydney Airport Charlottetown Airport East Point North Cape Argentia Bonavista Burgeo Cape Race Corner Brook Daniel's Harbour Englee Ferolle Point La Scie Port aux Basques Rocky Harbour Sagona Island St. Anthony Airport St. John's Int'l Airport St. Lawrence Stephenville Airport Twillingate Winterland Branch Hill Wreckhouse Grates Cove Pool's Island Marticot Island Long Pond Cartwright Airport Mary's Harbour
Legend:
buoy Buoy
land station Land Station

Atlantic - Newfoundland Area

Another Region

What we are doing

Date modified: